• En España
  • Lista de países
  • Para 7 días
  • Temperatura del agua
  • Mapa Satelital
  • El tiempo en el mapa
  • Informadores
  • user-avatar
    Iniciar sesión

    Tiempo cada hora Dobiegniew

    Hoy, 15 Octubre, Lunes

    Tiempo Temperatura Precipitaciones Viento Presión Humedad
    00:00 +15°C° 0 mm 4 mps 757 mmHg 58%
    01:00 +14°C° 0 mm 3 mps 757 mmHg 61%
    02:00 +14°C° 0 mm 3 mps 757 mmHg 58%
    03:00 +13°C° 0 mm 4 mps 757 mmHg 56%
    04:00 +13°C° 0 mm 4 mps 757 mmHg 53%
    05:00 +13°C° 0 mm 4 mps 757 mmHg 52%
    06:00 +13°C° 0 mm 4 mps 757 mmHg 52%
    07:00 +12°C° 0 mm 4 mps 757 mmHg 51%
    08:00 +14°C° 0 mm 4 mps 757 mmHg 47%
    09:00 +16°C° 0 mm 5 mps 757 mmHg 43%
    10:00 +19°C° 0 mm 5 mps 757 mmHg 38%
    11:00 +20°C° 0 mm 5 mps 757 mmHg 37%
    12:00 +21°C° 0 mm 5 mps 757 mmHg 35%
    13:00 +22°C° 0 mm 5 mps 757 mmHg 33%
    14:00 +22°C° 0 mm 4 mps 757 mmHg 36%
    15:00 +21°C° 0 mm 4 mps 757 mmHg 38%
    16:00 +21°C° 0 mm 3 mps 757 mmHg 41%
    17:00 +19°C° 0 mm 3 mps 757 mmHg 44%
    18:00 +18°C° 0 mm 3 mps 757 mmHg 48%
    19:00 +17°C° 0 mm 3 mps 757 mmHg 51%
    20:00 +16°C° 0 mm 3 mps 757 mmHg 54%
    21:00 +16°C° 0 mm 3 mps 757 mmHg 56%
    22:00 +14°C° 0 mm 3 mps 757 mmHg 58%
    23:00 +15°C° 0 mm 2 mps 757 mmHg 60%

    Mañana, 16 Octubre, Martes

    Tiempo Temperatura Precipitaciones Viento Presión Humedad
    00:00 +14°C° 0 mm 2 mps 757 mmHg 61%
    01:00 +14°C° 0 mm 2 mps 757 mmHg 63%
    02:00 +14°C° 0 mm 2 mps 757 mmHg 63%
    03:00 +13°C° 0 mm 2 mps 757 mmHg 64%
    04:00 +13°C° 0 mm 2 mps 757 mmHg 64%
    05:00 +13°C° 0 mm 2 mps 757 mmHg 64%
    06:00 +12°C° 0 mm 2 mps 758 mmHg 64%
    07:00 +12°C° 0 mm 2 mps 758 mmHg 64%
    08:00 +14°C° 0 mm 2 mps 758 mmHg 58%
    09:00 +16°C° 0 mm 2 mps 758 mmHg 53%
    10:00 +18°C° 0 mm 2 mps 758 mmHg 47%
    11:00 +19°C° 0 mm 3 mps 758 mmHg 45%
    12:00 +20°C° 0 mm 3 mps 758 mmHg 43%
    13:00 +21°C° 0 mm 3 mps 758 mmHg 40%
    14:00 +21°C° 0 mm 2 mps 758 mmHg 43%
    15:00 +20°C° 0 mm 2 mps 758 mmHg 46%
    16:00 +20°C° 0 mm 2 mps 758 mmHg 49%
    17:00 +18°C° 0 mm 2 mps 758 mmHg 53%
    18:00 +17°C° 0 mm 2 mps 758 mmHg 56%
    19:00 +16°C° 0 mm 2 mps 758 mmHg 59%
    20:00 +15°C° 0 mm 2 mps 758 mmHg 61%
    21:00 +15°C° 0 mm 2 mps 758 mmHg 63%
    22:00 +14°C° 0 mm 2 mps 759 mmHg 65%
    23:00 +14°C° 0 mm 2 mps 758 mmHg 67%

    Pasado mañana, 17 Octubre, Miércoles

    Tiempo Temperatura Precipitaciones Viento Presión Humedad
    00:00 +14°C° 0 mm 1 mps 758 mmHg 69%
    01:00 +13°C° 0 mm 1 mps 758 mmHg 71%
    02:00 +13°C° 0 mm 1 mps 758 mmHg 73%
    03:00 +13°C° 0 mm 1 mps 758 mmHg 74%
    04:00 +12°C° 0 mm 1 mps 758 mmHg 76%
    05:00 +12°C° 0 mm 1 mps 758 mmHg 77%
    06:00 +12°C° 0 mm 1 mps 758 mmHg 79%
    07:00 +12°C° 0 mm 1 mps 759 mmHg 80%
    08:00 +13°C° 0 mm 2 mps 759 mmHg 74%
    09:00 +15°C° 0 mm 2 mps 759 mmHg 67%
    10:00 +17°C° 0 mm 2 mps 759 mmHg 60%
    11:00 +18°C° 0 mm 2 mps 759 mmHg 57%
    12:00 +19°C° 0 mm 2 mps 759 mmHg 54%
    13:00 +21°C° 0 mm 2 mps 759 mmHg 51%
    14:00 +21°C° 0 mm 1 mps 758 mmHg 54%
    15:00 +21°C° 0 mm 1 mps 758 mmHg 56%
    16:00 +20°C° 0 mm 1 mps 758 mmHg 59%
    17:00 +19°C° 0 mm 1 mps 758 mmHg 63%
    18:00 +18°C° 0 mm 1 mps 758 mmHg 66%
    19:00 +15°C° 0 mm 1 mps 758 mmHg 70%
    20:00 +15°C° 0 mm 1 mps 758 mmHg 71%
    21:00 +15°C° 0 mm 1 mps 759 mmHg 73%
    22:00 +14°C° 0 mm 1 mps 759 mmHg 74%
    23:00 +14°C° 0 mm 1 mps 759 mmHg 75%

    18 Octubre, Jueves

    Tiempo Temperatura Precipitaciones Viento Presión Humedad
    00:00 +14°C° 0 mm 1 mps 759 mmHg 77%
    01:00 +13°C° 0 mm 1 mps 759 mmHg 78%
    02:00 +12°C° 0 mm 0 mps 759 mmHg 79%
    03:00 +12°C° 0 mm 0 mps 759 mmHg 80%
    04:00 +11°C° 0 mm 0 mps 759 mmHg 82%
    05:00 +11°C° 0 mm 0 mps 759 mmHg 82%
    06:00 +11°C° 0 mm 0 mps 759 mmHg 83%
    07:00 +11°C° 0 mm 0 mps 759 mmHg 84%
    08:00 +13°C° 0 mm 0 mps 759 mmHg 77%
    09:00 +15°C° 0 mm 0 mps 759 mmHg 70%
    10:00 +19°C° 0 mm 1 mps 759 mmHg 63%
    11:00 +20°C° 0 mm 1 mps 759 mmHg 60%
    12:00 +21°C° 0 mm 1 mps 759 mmHg 57%
    13:00 +21°C° 0 mm 1 mps 759 mmHg 55%
    14:00 +21°C° 0 mm 1 mps 759 mmHg 57%
    15:00 +20°C° 0 mm 1 mps 759 mmHg 60%
    16:00 +20°C° 0 mm 1 mps 759 mmHg 63%
    17:00 +18°C° 0 mm 2 mps 759 mmHg 67%
    18:00 +16°C° 0 mm 2 mps 759 mmHg 72%
    19:00 +15°C° 0 mm 2 mps 760 mmHg 77%
    20:00 +14°C° 0 mm 2 mps 760 mmHg 79%
    21:00 +14°C° 0 mm 2 mps 760 mmHg 81%
    22:00 +13°C° 0 mm 2 mps 760 mmHg 83%
    23:00 +13°C° 0 mm 2 mps 760 mmHg 85%

    19 Octubre, Viernes

    Tiempo Temperatura Precipitaciones Viento Presión Humedad
    00:00 +12°C° 0 mm 2 mps 760 mmHg 87%
    01:00 +12°C° 0 mm 2 mps 760 mmHg 89%
    02:00 +12°C° 0 mm 2 mps 760 mmHg 91%
    03:00 +12°C° 0 mm 2 mps 760 mmHg 93%
    04:00 +10°C° 0 mm 2 mps 760 mmHg 95%
    05:00 +10°C° 0 mm 2 mps 760 mmHg 95%
    06:00 +10°C° 0 mm 2 mps 761 mmHg 94%
    07:00 +10°C° 0 mm 2 mps 761 mmHg 94%
    08:00 +12°C° 0 mm 2 mps 761 mmHg 86%
    09:00 +13°C° 0 mm 2 mps 761 mmHg 78%
    10:00 +15°C° 0 mm 2 mps 761 mmHg 70%
    11:00 +14°C° 0 mm 3 mps 761 mmHg 64%
    12:00 +16°C° 0 mm 3 mps 761 mmHg 58%
    13:00 +17°C° 0 mm 3 mps 761 mmHg 52%
    14:00 +16°C° 0 mm 3 mps 761 mmHg 54%
    15:00 +16°C° 0 mm 2 mps 761 mmHg 55%
    16:00 +15°C° 0 mm 2 mps 761 mmHg 57%
    17:00 +14°C° 0 mm 2 mps 761 mmHg 62%
    18:00 +12°C° 0 mm 2 mps 761 mmHg 68%
    19:00 +10°C° 0 mm 2 mps 761 mmHg 74%
    20:00 +9°C° 0 mm 2 mps 762 mmHg 78%
    21:00 +8°C° 0 mm 2 mps 762 mmHg 82%
    22:00 +7°C° 0 mm 2 mps 762 mmHg 86%
    23:00 +7°C° 0 mm 2 mps 762 mmHg 88%

    20 Octubre, Sábado

    Tiempo Temperatura Precipitaciones Viento Presión Humedad
    00:00 +6°C° 0 mm 2 mps 762 mmHg 90%
    01:00 +6°C° 0 mm 2 mps 762 mmHg 92%
    02:00 +6°C° 0 mm 2 mps 762 mmHg 93%
    03:00 +5°C° 0 mm 2 mps 762 mmHg 94%
    04:00 +5°C° 0 mm 2 mps 763 mmHg 95%
    05:00 +5°C° 0 mm 2 mps 763 mmHg 95%
    06:00 +5°C° 0 mm 2 mps 763 mmHg 96%
    07:00 +5°C° 0 mm 2 mps 763 mmHg 96%
    08:00 +7°C° 0 mm 3 mps 764 mmHg 87%
    09:00 +9°C° 0 mm 3 mps 764 mmHg 78%
    10:00 +10°C° 0 mm 4 mps 764 mmHg 70%
    11:00 +11°C° 0 mm 4 mps 764 mmHg 67%
    12:00 +11°C° 0 mm 4 mps 764 mmHg 64%
    13:00 +11°C° 0 mm 4 mps 764 mmHg 62%
    14:00 +11°C° 0 mm 3 mps 764 mmHg 62%
    15:00 +11°C° 0 mm 3 mps 764 mmHg 63%
    16:00 +11°C° 0 mm 3 mps 764 mmHg 64%
    17:00 +10°C° 0 mm 3 mps 764 mmHg 68%
    18:00 +9°C° 0 mm 3 mps 765 mmHg 72%
    19:00 +9°C° 0 mm 2 mps 765 mmHg 76%
    20:00 +8°C° 0 mm 2 mps 765 mmHg 79%
    21:00 +8°C° 0 mm 2 mps 765 mmHg 81%
    22:00 +7°C° 0 mm 2 mps 765 mmHg 84%
    23:00 +7°C° 0 mm 2 mps 765 mmHg 86%
    Mostrar más